Back to catalog

SL-12 R/B

AUX MOTOR

AliveHEO
NORAD 23403·ROCKET BODY·🇷🇺 Russia

Launched Nov 20, 1994 from Baikonur Cosmodrome

Loading…

Next Passes (next 24 hours)

TLE

FreshSource: Space-Track

Epoch: Sep 13, 2026, 20:53 UTC

1 23403U 94076H   26256.87046630 -.00000002  00000-0  22768-3 0  9994
2 23403  65.5472 291.1837 5564637 104.4211  18.6993  4.27489323494480

Track SL-12 R/B in real time with AllMySat

Download on the App Store